Location: *
(2.5500°S, 65.9667°W)
Time: 17:26:47
(UTC+00:00)

A-11 Canister half - Pass Details

Date: 18 April 2024
Orbit: 1525 x 1683 km, 47.3° (Epoch: 21 May)

Event Time Altitude Azimuth Distance (km) Brightness Sun altitude
Exits shadow 07:06:47 43° 77° (ENE) 2,157 9.9 -48.6°
Drops below altitude 10° 07:13:15 10° 53° (NE) 3,873 11.6 -47.0°
Sets 07:16:30 0° 49° (NE) 4,877 12.2 -46.2°
